Date,TemperatureHighF,TemperatureAvgF,TemperatureLowF,DewpointHighF,DewpointAvgF,DewpointLowF,HumidityHigh,HumidityAvg,HumidityLow,PressureMaxIn,PressureMinIn,WindSpeedMaxMPH,WindSpeedAvgMPH,GustSpeedMaxMPH,PrecipitationSumIn
2013-10-1,48,39,30,38,33,28,97,81,54,29.84,29.66,5,0,8,0.02
2013-10-2,51,42,36,45,39,35,97,90,72,29.87,29.82,5,1,8,0.04
2013-10-3,48,41,32,43,38,31,98,89,78,29.82,29.49,4,1,8,0.01
2013-10-4,54,42,32,43,37,31,97,85,59,29.78,29.50,5,1,7,0.00
2013-10-5,50,42,34,42,38,32,96,87,69,29.83,29.73,7,1,9,0.00
2013-10-6,44,40,36,43,39,34,97,96,90,29.77,29.73,3,0,3,0.21
2013-10-7,48,42,36,42,38,35,98,88,73,29.91,29.75,8,1,9,0.01
2013-10-8,49,46,41,42,39,35,96,77,58,29.76,29.06,25,13,34,0.37
2013-10-9,51,41,29,41,37,27,97,85,57,29.77,29.10,4,1,6,0.00
2013-10-10,42,35,26,36,32,25,96,89,74,29.79,29.73,5,1,9,0.01
2013-10-11,51,42,37,41,38,36,96,85,59,29.90,29.76,14,3,19,0.01
2013-10-12,54,51,50,38,37,34,64,58,49,29.88,29.69,21,16,28,0.00
2013-10-13,50,44,36,42,39,35,96,84,61,29.73,29.48,27,11,35,0.55
2013-10-14,54,47,39,42,38,36,93,73,49,30.08,29.73,14,4,19,0.00
2013-10-15,54,50,45,42,39,35,80,66,55,30.15,30.06,21,13,27,0.19
2013-10-16,55,53,45,43,40,38,89,62,56,30.27,30.15,22,14,32,0.00
2013-10-17,55,48,43,43,39,35,95,73,51,30.18,29.83,23,9,30,0.02
2013-10-18,53,51,47,44,37,33,75,59,49,29.84,29.67,24,16,33,0.00
2013-10-19,52,49,45,41,37,34,83,65,52,29.68,29.32,33,16,46,0.00
2013-10-20,51,48,45,38,33,30,69,57,47,29.98,29.69,20,13,31,0.00
2013-10-21,50,44,35,38,34,31,90,70,53,30.08,29.98,15,4,20,0.00
2013-10-22,47,36,26,37,32,24,95,83,63,30.23,30.06,13,1,16,0.00
2013-10-23,31,25,20,30,24,19,96,95,92,30.11,29.81,4,1,5,0.00
2013-10-24,48,34,20,35,23,-100,95,73,53,29.89,29.69,21,-27,25,0.01
2013-10-25,48,39,31,36,33,28,94,80,61,30.21,29.74,20,3,28,0.00
2013-10-26,41,31,26,36,28,-100,97,92,82,30.51,30.21,4,-13,10,0.00
2013-10-27,54,42,32,42,33,-100,100,75,55,30.35,29.60,28,-14,39,0.27
2013-10-28,56,49,42,45,42,39,94,78,55,29.62,29.20,34,14,44,0.71
2013-10-29,48,39,31,42,36,30,97,87,62,29.61,29.40,17,2,18,0.00
2013-10-30,49,44,35,40,36,33,94,73,59,29.39,29.11,15,6,22,0.00
2013-10-31,42,38,34,39,36,32,96,94,90,29.66,29.19,5,0,5,0.04